View from above orbital plane
|
View from above satellite
|
Ground track
|
The orbit data is extracted from the following two-line orbital elements,
1 18010U 87043F 21016.11257037 .00001020 00000-0 96881-4 0 9997
2 18010 63.3029 292.6843 0942008 67.3902 302.3954 13.46432480 76014
Epoch (UTC): | 16 January 2021 02:42:06 |
Eccentricity: | 0.0942008 |
inclination: | 63.3029° |
perigee height: | 382 km |
apogee height: | 1788 km |
right ascension of ascending node: | 292.6843° |
argument of perigee: | 67.3902° |
revolutions per day: | 13.46432480 |
mean anomaly at epoch: | 302.3954° |
orbit number at epoch: | 7601 |
The dashed part of the orbit path shows where the satellite is in the earth's shadow,
|
|